This is the latest recevied weather packets stored in our database for station/object AG1T-20. If no packets are shown the sender has not sent any weather packets the latest 10 day(s).
| Time | Temp. | Humidity | Pressure | Rain* | Wind** | Luminosity | Snow |
|---|---|---|---|---|---|---|---|
| 1778194205 | 22.78° C | 27% | 1017 hPa | 0 mm | - | 325 W/m² | - |
| 1778193605 | 23.89° C | 26% | 1017 hPa | 0 mm | - | 375 W/m² | - |
| 1778193005 | 22.78° C | 26% | 1017 hPa | 0 mm | - | 459 W/m² | - |
| 1778192405 | 22.78° C | 28% | 1017 hPa | 0 mm | - | 524 W/m² | - |
| 1778191805 | 22.78° C | 26% | 1017 hPa | 0 mm | - | 358 W/m² | - |
| 1778191205 | 21.11° C | 26% | 1017 hPa | 0 mm | - | 517 W/m² | - |
| 1778190605 | 21.67° C | 30% | 1018.1 hPa | 0 mm | - | 138 W/m² | - |
| 1778190005 | 21.11° C | 28% | 1018.1 hPa | 0 mm | - | 603 W/m² | - |
| 1778189405 | 21.11° C | 33% | 1018.1 hPa | 0 mm | - | 640 W/m² | - |
| 1778188804 | 20.56° C | 31% | 1018.1 hPa | 0 mm | - | 721 W/m² | - |
| 1778188205 | 18.89° C | 33% | 1018.1 hPa | 0 mm | - | 189 W/m² | - |
| 1778187605 | 19.44° C | 31% | 1018.1 hPa | 0 mm | - | 204 W/m² | - |
| 1778187005 | 19.44° C | 34% | 1018.5 hPa | 0 mm | - | 219 W/m² | - |
| 1778186405 | 19.44° C | 34% | 1018.5 hPa | 0 mm | - | 320 W/m² | - |
| 1778185805 | 20° C | 31% | 1018.5 hPa | 0 mm | - | 309 W/m² | - |
| 1778185204 | 19.44° C | 31% | 1018.5 hPa | 0 mm | - | 362 W/m² | - |
| 1778184605 | 19.44° C | 33% | 1018.5 hPa | 0 mm | - | 365 W/m² | - |
| 1778184005 | 20° C | 30% | 1018.5 hPa | 0 mm | - | 471 W/m² | - |
| 1778183405 | 20° C | 30% | 1018.6 hPa | 0 mm | - | 587 W/m² | - |
| 1778182805 | 19.44° C | 30% | 1018.6 hPa | 0 mm | - | 379 W/m² | - |
| 1778182205 | 19.44° C | 32% | 1018.6 hPa | 0 mm | - | 508 W/m² | - |
| 1778181605 | 19.44° C | 30% | 1018.6 hPa | 0 mm | - | 693 W/m² | - |
| 1778181005 | 18.89° C | 32% | 1018.6 hPa | 0 mm | - | 362 W/m² | - |
| 1778180405 | 19.44° C | 29% | 1018.6 hPa | 0 mm | - | 379 W/m² | - |
| 1778179805 | 19.44° C | 27% | 1018.7 hPa | 0 mm | - | 651 W/m² | - |
* Rain latest hour (hover to see other rain measurements)
** Current wind speed in m/s (hover to see current wind gust speed)